EN

Hourly Weather Atarra

Today, 28 November, Saturday

Time Temperature Precipitation Wind Pressure Humidity
00:00 +19°C° 0 mm 1 mps 753 mmHg 46%
01:00 +19°C° 0 mm 1 mps 752 mmHg 47%
02:00 +18°C° 0 mm 1 mps 752 mmHg 49%
03:00 +18°C° 0 mm 1 mps 752 mmHg 50%
04:00 +16°C° 0 mm 2 mps 752 mmHg 51%
05:00 +16°C° 0 mm 2 mps 752 mmHg 53%
06:00 +17°C° 0 mm 2 mps 753 mmHg 50%
07:00 +18°C° 0 mm 2 mps 753 mmHg 48%
08:00 +20°C° 0 mm 2 mps 754 mmHg 45%
09:00 +23°C° 0 mm 2 mps 754 mmHg 40%
10:00 +25°C° 0 mm 2 mps 753 mmHg 34%
11:00 +27°C° 0 mm 2 mps 753 mmHg 29%
12:00 +28°C° 0 mm 2 mps 752 mmHg 27%
13:00 +29°C° 0 mm 2 mps 751 mmHg 26%
14:00 +29°C° 0 mm 2 mps 750 mmHg 24%
15:00 +27°C° 0 mm 2 mps 750 mmHg 27%
16:00 +25°C° 0 mm 1 mps 750 mmHg 30%
17:00 +23°C° 0 mm 1 mps 750 mmHg 33%
18:00 +22°C° 0 mm 1 mps 750 mmHg 35%
19:00 +21°C° 0 mm 1 mps 751 mmHg 37%
20:00 +20°C° 0 mm 1 mps 751 mmHg 39%
21:00 +20°C° 0 mm 1 mps 751 mmHg 40%
22:00 +19°C° 0 mm 1 mps 751 mmHg 41%
23:00 +19°C° 0 mm 1 mps 751 mmHg 42%

Tomorrow, 29 November, Sunday

Time Temperature Precipitation Wind Pressure Humidity
00:00 +19°C° 0 mm 1 mps 751 mmHg 43%
01:00 +18°C° 0 mm 1 mps 751 mmHg 44%
02:00 +18°C° 0 mm 1 mps 750 mmHg 44%
03:00 +18°C° 0 mm 1 mps 750 mmHg 45%
04:00 +16°C° 0 mm 1 mps 750 mmHg 46%
05:00 +16°C° 0 mm 1 mps 751 mmHg 47%
06:00 +18°C° 0 mm 1 mps 751 mmHg 45%
07:00 +20°C° 0 mm 1 mps 752 mmHg 42%
08:00 +21°C° 0 mm 1 mps 753 mmHg 40%
09:00 +23°C° 0 mm 1 mps 753 mmHg 36%
10:00 +25°C° 0 mm 1 mps 752 mmHg 32%
11:00 +27°C° 0 mm 1 mps 752 mmHg 28%
12:00 +28°C° 0 mm 2 mps 751 mmHg 26%
13:00 +28°C° 0 mm 2 mps 750 mmHg 25%
14:00 +29°C° 0 mm 2 mps 750 mmHg 23%
15:00 +27°C° 0 mm 2 mps 749 mmHg 26%
16:00 +25°C° 0 mm 1 mps 749 mmHg 29%
17:00 +23°C° 0 mm 1 mps 749 mmHg 32%
18:00 +22°C° 0 mm 1 mps 750 mmHg 34%
19:00 +21°C° 0 mm 1 mps 750 mmHg 36%
20:00 +18°C° 0 mm 0 mps 750 mmHg 38%
21:00 +18°C° 0 mm 0 mps 750 mmHg 39%
22:00 +17°C° 0 mm 0 mps 750 mmHg 40%
23:00 +17°C° 0 mm 0 mps 750 mmHg 41%

Day after tomorrow, 30 November, Monday

Time Temperature Precipitation Wind Pressure Humidity
00:00 +16°C° 0 mm 0 mps 750 mmHg 43%
01:00 +16°C° 0 mm 0 mps 750 mmHg 44%
02:00 +16°C° 0 mm 1 mps 750 mmHg 45%
03:00 +16°C° 0 mm 1 mps 749 mmHg 46%
04:00 +16°C° 0 mm 1 mps 749 mmHg 47%
05:00 +15°C° 0 mm 1 mps 749 mmHg 48%
06:00 +18°C° 0 mm 1 mps 750 mmHg 45%
07:00 +19°C° 0 mm 1 mps 751 mmHg 43%
08:00 +21°C° 0 mm 1 mps 752 mmHg 40%
09:00 +23°C° 0 mm 1 mps 751 mmHg 36%
10:00 +25°C° 0 mm 1 mps 751 mmHg 31%
11:00 +27°C° 0 mm 1 mps 751 mmHg 27%
12:00 +28°C° 0 mm 1 mps 750 mmHg 25%
13:00 +28°C° 0 mm 1 mps 749 mmHg 23%
14:00 +29°C° 0 mm 1 mps 749 mmHg 21%
15:00 +27°C° 0 mm 1 mps 749 mmHg 24%
16:00 +25°C° 0 mm 1 mps 749 mmHg 26%
17:00 +21°C° 0 mm 0 mps 749 mmHg 29%
18:00 +20°C° 0 mm 0 mps 749 mmHg 31%
19:00 +19°C° 0 mm 0 mps 750 mmHg 32%
20:00 +18°C° 0 mm 0 mps 750 mmHg 34%
21:00 +18°C° 0 mm 0 mps 750 mmHg 35%
22:00 +17°C° 0 mm 0 mps 750 mmHg 36%
23:00 +17°C° 0 mm 0 mps 750 mmHg 37%

1 December, Tuesday

Time Temperature Precipitation Wind Pressure Humidity
00:00 +17°C° 0 mm 0 mps 750 mmHg 38%
01:00 +18°C° 0 mm 1 mps 750 mmHg 39%
02:00 +18°C° 0 mm 1 mps 750 mmHg 40%
03:00 +16°C° 0 mm 1 mps 750 mmHg 40%
04:00 +16°C° 0 mm 1 mps 750 mmHg 41%
05:00 +16°C° 0 mm 1 mps 750 mmHg 42%
06:00 +18°C° 0 mm 1 mps 750 mmHg 40%
07:00 +20°C° 0 mm 1 mps 751 mmHg 38%
08:00 +21°C° 0 mm 1 mps 751 mmHg 36%
09:00 +23°C° 0 mm 1 mps 751 mmHg 32%
10:00 +25°C° 0 mm 1 mps 751 mmHg 28%
11:00 +28°C° 0 mm 1 mps 751 mmHg 25%
12:00 +28°C° 0 mm 1 mps 750 mmHg 23%
13:00 +29°C° 0 mm 1 mps 749 mmHg 21%
14:00 +29°C° 0 mm 2 mps 749 mmHg 19%
15:00 +27°C° 0 mm 1 mps 749 mmHg 22%
16:00 +26°C° 0 mm 1 mps 749 mmHg 25%
17:00 +24°C° 0 mm 1 mps 749 mmHg 28%
18:00 +23°C° 0 mm 1 mps 749 mmHg 29%
19:00 +20°C° 0 mm 0 mps 749 mmHg 31%
20:00 +19°C° 0 mm 0 mps 750 mmHg 32%
21:00 +18°C° 0 mm 0 mps 749 mmHg 33%
22:00 +18°C° 0 mm 0 mps 749 mmHg 34%
23:00 +17°C° 0 mm 0 mps 749 mmHg 34%

2 December, Wednesday

Time Temperature Precipitation Wind Pressure Humidity
00:00 +17°C° 0 mm 0 mps 749 mmHg 35%
01:00 +19°C° 0 mm 1 mps 749 mmHg 36%
02:00 +18°C° 0 mm 1 mps 749 mmHg 36%
03:00 +18°C° 0 mm 1 mps 749 mmHg 37%
04:00 +18°C° 0 mm 1 mps 749 mmHg 38%
05:00 +16°C° 0 mm 2 mps 749 mmHg 39%
06:00 +18°C° 0 mm 2 mps 749 mmHg 38%
07:00 +19°C° 0 mm 2 mps 750 mmHg 36%
08:00 +20°C° 0 mm 2 mps 750 mmHg 35%
09:00 +23°C° 0 mm 2 mps 750 mmHg 31%
10:00 +26°C° 0 mm 2 mps 750 mmHg 26%
11:00 +28°C° 0 mm 3 mps 750 mmHg 22%
12:00 +29°C° 0 mm 3 mps 749 mmHg 21%
13:00 +30°C° 0 mm 3 mps 748 mmHg 19%
14:00 +31°C° 0 mm 3 mps 747 mmHg 18%
15:00 +29°C° 0 mm 3 mps 747 mmHg 21%
16:00 +26°C° 0 mm 2 mps 747 mmHg 24%
17:00 +24°C° 0 mm 2 mps 747 mmHg 28%
18:00 +23°C° 0 mm 1 mps 747 mmHg 30%
19:00 +22°C° 0 mm 1 mps 747 mmHg 31%
20:00 +19°C° 0 mm 0 mps 748 mmHg 33%
21:00 +21°C° 0 mm 1 mps 747 mmHg 34%
22:00 +20°C° 0 mm 1 mps 747 mmHg 34%
23:00 +20°C° 0 mm 1 mps 747 mmHg 34%

3 December, Thursday

Time Temperature Precipitation Wind Pressure Humidity
00:00 +20°C° 0 mm 1 mps 747 mmHg 35%
01:00 +19°C° 0 mm 1 mps 747 mmHg 36%
02:00 +18°C° 0 mm 2 mps 747 mmHg 36%
03:00 +17°C° 0 mm 2 mps 747 mmHg 37%
04:00 +17°C° 0 mm 2 mps 747 mmHg 38%
05:00 +17°C° 0 mm 2 mps 747 mmHg 38%
06:00 +18°C° 0 mm 2 mps 748 mmHg 37%
07:00 +19°C° 0 mm 2 mps 748 mmHg 36%
08:00 +20°C° 0 mm 2 mps 749 mmHg 35%
09:00 +24°C° 0 mm 2 mps 749 mmHg 31%
10:00 +26°C° 0 mm 2 mps 749 mmHg 27%
11:00 +28°C° 0 mm 2 mps 749 mmHg 23%
12:00 +29°C° 0 mm 2 mps 748 mmHg 21%
13:00 +30°C° 0 mm 2 mps 748 mmHg 20%
14:00 +31°C° 0 mm 2 mps 747 mmHg 18%
15:00 +29°C° 0 mm 2 mps 747 mmHg 21%
16:00 +27°C° 0 mm 1 mps 747 mmHg 24%
17:00 +25°C° 0 mm 1 mps 747 mmHg 27%
18:00 +24°C° 0 mm 1 mps 747 mmHg 28%
19:00 +23°C° 0 mm 1 mps 748 mmHg 30%
20:00 +21°C° 0 mm 1 mps 748 mmHg 32%
21:00 +21°C° 0 mm 1 mps 748 mmHg 33%
22:00 +20°C° 0 mm 1 mps 748 mmHg 35%
23:00 +20°C° 0 mm 1 mps 748 mmHg 36%
Show more